Tracking 23610 objects as of 21-Sep-2021
HD Live streaming from Space Station
objects crossing your sky now

PALAPA B1

Track PALAPA B1 now!
PALAPA B1 is classified as:


NORAD ID: 14134
Int'l Code: 1983-059C
Perigee: 35,800.3 km
Apogee: 35,847.8 km
Inclination: 13.7 °
Period: 1,437.6 minutes
Semi major axis: 42195 km
RCS: 1.2604 m2 (large)
Launch date: June 18, 1983
Source: Indonesia (INDO)
Launch site: AIR FORCE EASTERN TEST RANGE (AFETR)
aabbcc
Your satellite tracking list
Your tracking list is empty




NASA's NSSDC Master Catalog

Two Line Element Set (TLE):
1 14134U 83059C   21263.43726035  .00000088  00000-0  00000-0 0  9998
2 14134  13.7408 342.6373 0005633  85.4843 302.8535  1.00163883103454
Source of the keplerian elements: AFSPC